[TLELIST] Archives

 

Current TLEs <02 AUG 2005>

August 2nd 2005 PDT

HST 1 20580U 90037B 05213.70888437 .00000794 00000-0 49637-4 0 3953 2 20580 28.4687 332.1606 0003402 38.3010 321.7825 14.99788830637086 ISS 1 25544U 98067A 05214.97329198 .00044987 00000-0 34551-3 0 613 2 25544 51.6450 21.3333 0002096 197.3533 308.0135 15.71584650383046 CHANDRA 1 25867U 99040B 05212.79166667 .00000000 00000-0 00000+0 0 8143 2 25867 57.4651 102.9079 5630266 297.8343 357.4223 0.37789863 1211 STS-114 1 28 ...Continue Reading

Current TLEs <02 AUG 2005>

August 2nd 2005 PDT

HST 1 20580U 90037B 05213.70888437 .00000794 00000-0 49637-4 0 3953 2 20580 28.4687 332.1606 0003402 38.3010 321.7825 14.99788830637086 ISS 1 25544U 98067A 05214.97329198 .00044987 00000-0 34551-3 0 613 2 25544 51.6450 21.3333 0002096 197.3533 308.0135 15.71584650383046 CHANDRA 1 25867U 99040B 05212.79166667 .00000000 00000-0 00000+0 0 8143 2 25867 57.4651 102.9079 5630266 297.8343 357.4223 0.37789863 1211 STS-114 ...Continue Reading

Current TLEs <29 JUL 2005>

July 30th 2005 PDT

HST 1 20580U 90037B 05210.78088443 .00000514 00000-0 27531-4 0 3934 2 20580 28.4691 351.2375 0003486 4.6712 355.3898 14.99784542636643 ISS 1 25544U 98067A 05211.39966015 .00012309 00000-0 96323-4 0 306 2 25544 51.6467 39.6174 0002527 177.2272 254.2833 15.72065970382489 CHANDRA 1 25867U 99040B 05210.16666667 .00000000 00000-0 00000+0 0 8136 2 25867 57.4388 102.9468 5635370 297.8874 0.0706 0.37799614 1212 STS-114 1 28 ...Continue Reading

Current TLEs <27 JUL 2005>

July 27th 2005 PDT

HST 1 20580U 90037B 05207.78633252 .00000435 00000-0 21285-4 0 3914 2 20580 28.4686 10.7559 0003431 328.0476 31.9903 14.99782575636196 ISS 1 25544U 98067A 05208.16287234 .00009274 00000-0 74046-4 0 20 2 25544 51.6457 56.1843 0003032 159.2474 302.1117 15.71960405381978 CHANDRA 1 25867U 99040B 05204.87500000 .00000000 00000-0 00000+0 0 8124 2 25867 57.3933 103.1023 5629313 297.9012 359.7812 0.37790551 1215 STS-114 1 28 ...Continue Reading

Current TLEs <25 JUL 2005>

July 25th 2005 PDT

HST 1 20580U 90037B 05204.92486956 .00000485 00000-0 25207-4 0 3894 2 20580 28.4678 29.4008 0003546 299.0471 60.9765 14.99781084635766 ISS 1 25544U 98067A 05206.43945047 .00009840 00000-0 78385-4 0 9883 2 25544 51.6464 65.0052 0003177 155.3648 266.6003 15.71928471381703 CHANDRA 1 25867U 99040B 05204.87500000 .00000000 00000-0 00000+0 0 8124 2 25867 57.3933 103.1023 5629313 297.9012 359.7812 0.37790551 1215 These 2-Line Elements (TLEs) ...Continue Reading

Current TLEs <22 JUL 2005>

July 22nd 2005 PDT

HST 1 20580U 90037B 05202.79540754 .00000465 00000-0 23652-4 0 3872 2 20580 28.4678 43.2761 0003671 275.5717 84.4451 14.99779496635449 ISS 1 25544U 98067A 05202.96681713 .00013205 00000-0 10386-3 0 9655 2 25544 51.6450 82.7804 0003336 141.9294 55.8382 15.71861227381156 CHANDRA 1 25867U 99040B 05202.20833333 .00000000 00000-0 00000+0 0 8116 2 25867 57.4020 103.1143 5622174 298.0330 356.6893 0.37778468 1217 These 2-Line Elements (TLEs) ...Continue Reading

Current TLEs <18 JUL 2005>

July 18th 2005 PDT

HST 1 20580U 90037B 05199.86739488 .00000437 00000-0 21422-4 0 3859 2 20580 28.4676 62.3500 0003862 242.2169 117.8029 14.99777483635002 ISS 1 25544U 98067A 05199.96308253 .00010727 00000-0 85583-4 0 9417 2 25544 51.6444 98.1532 0003436 135.6612 333.8736 15.71771585380689 CHANDRA 1 25867U 99040B 05199.54166667 .00000000 00000-0 00000+0 0 8106 2 25867 57.3918 103.0989 5623549 298.2070 353.5489 0.37787810 1217 These 2-Line Elements (TLEs) ...Continue Reading

Current TLEs <10 JUL 2005>

July 10th 2005 PDT

HST 1 20580U 90037B 05190.88370548 .00000662 00000-0 39223-4 0 3791 2 20580 28.4663 120.8901 0004029 151.6519 208.4289 14.99767482633653 ISS 1 25544U 98067A 05191.32147791 .00013175 00000-0 10536-3 0 8770 2 25544 51.6441 142.3705 0004005 99.2243 43.4638 15.71463702379321 CHANDRA 1 25867U 99040B 05188.95833333 .00000000 00000-0 00000+0 0 8065 2 25867 57.3398 103.2528 5624825 298.5503 352.5368 0.37784186 1210 These 2-Line Elements (TLEs) ...Continue Reading

Current TLEs <01 JUL 2005>

July 1st 2005 PDT

HST 1 20580U 90037B 05181.43411428 .00000388 00000-0 17560-4 0 3699 2 20580 28.4660 182.4633 0003709 57.2935 302.8010 14.99758160632230 ISS 1 25544U 98067A 05182.35706443 .00003975 00000-0 33780-4 0 8154 2 25544 51.6439 188.2660 0001701 284.2492 212.0149 15.72388301377915 CHANDRA 1 25867U 99040B 05181.04166667 .00000000 00000-0 00000+0 0 8034 2 25867 57.2605 103.3370 5641373 298.7513 354.8015 0.37803072 1216 These 2-Line Elements (TLEs) ...Continue Reading

Current TLEs <28 JUN 2005>

June 28th 2005 PDT

HST 1 20580U 90037B 05178.43950955 .00000442 00000-0 21862-4 0 3677 2 20580 28.4658 201.9758 0003339 23.7502 336.3213 14.99756860631780 ISS 1 25544U 98067A 05179.85568287 .00006452 00000-0 50406-4 0 7962 2 25544 51.6436 201.0812 0004012 321.3841 43.3815 15.73143532377522 CHANDRA 1 25867U 99040B 05178.41666667 .00000000 00000-0 00000+0 0 8025 2 25867 57.2310 103.4180 5638991 298.7456 357.5008 0.37796738 1219 These 2-Line Elements (TLEs) ...Continue Reading
  • This mailing list is a public mailing list - anyone may join or leave, at any time.
  • This mailing list is announce-only.

International Space Station (ISS) / Hubble Space Telescope (HST) / Chandra X-Ray Observatory Orbital Data via EMAIL

Privacy Policy:

Private list